AAL689 KTUL-KCLT

Flight info

Callsign AAL689
Flight time 1h 44m
Altitude 37000
Route MAYJI ARG TAZZA FILPZ4
Aircraft B738/M-SDE2E3FGHIRWXY/LB1

Departure

Time 2026-04-26 16:20
Airport Tulsa International Airport (KTUL)

Arrival

Time 2026-04-26 18:04
Airport Charlotte Douglas International Airport (KCLT)
Time Latitude Longitude Altitude Speed Heading
2026-04-26 15:55 36.19107 -95.88614 654 ft 0 kts 276°
2026-04-26 16:10 36.19106 -95.88607 653 ft 4 kts 274°
2026-04-26 16:10 36.19108 -95.88574 653 ft 4 kts 251°
2026-04-26 16:11 36.19120 -95.88548 654 ft 4 kts 213°
2026-04-26 16:11 36.19145 -95.88538 654 ft 4 kts 174°
2026-04-26 16:11 36.19169 -95.88547 655 ft 4 kts 140°
2026-04-26 16:11 36.19176 -95.88556 655 ft 1 kts 125°
2026-04-26 16:12 36.19176 -95.88555 655 ft 0 kts 125°
2026-04-26 16:13 36.19175 -95.88553 655 ft 3 kts 125°
2026-04-26 16:13 36.19186 -95.88530 652 ft 8 kts
2026-04-26 16:14 36.19254 -95.88618 658 ft 20 kts 310°
2026-04-26 16:14 36.19373 -95.88604 652 ft 20 kts 40°
2026-04-26 16:14 36.19534 -95.88452 652 ft 0 kts 42°
2026-04-26 16:15 36.19539 -95.88451 652 ft 3 kts 15°
2026-04-26 16:15 36.19552 -95.88537 652 ft 20 kts 272°
2026-04-26 16:15 36.19590 -95.88636 653 ft 10 kts 348°
2026-04-26 16:16 36.19836 -95.88549 654 ft 25 kts 18°
2026-04-26 16:16 36.19995 -95.88482 648 ft 23 kts 19°
2026-04-26 16:16 36.20145 -95.88419 643 ft 22 kts 19°
2026-04-26 16:16 36.20294 -95.88375 640 ft 22 kts
2026-04-26 16:17 36.20444 -95.88367 643 ft 21 kts
2026-04-26 16:17 36.20589 -95.88356 640 ft 21 kts
2026-04-26 16:17 36.20729 -95.88347 637 ft 20 kts
2026-04-26 16:17 36.20866 -95.88337 639 ft 19 kts
2026-04-26 16:18 36.21013 -95.88328 642 ft 24 kts
2026-04-26 16:18 36.21319 -95.88307 636 ft 16 kts
2026-04-26 16:19 36.21369 -95.88155 635 ft 5 kts 128°
2026-04-26 16:19 36.21313 -95.88138 634 ft 17 kts 182°
2026-04-26 16:19 36.20484 -95.88179 639 ft 123 kts 187°
2026-04-26 16:20 36.19072 -95.88308 1050 ft 172 kts 180°
2026-04-26 16:20 36.16470 -95.88466 2460 ft 189 kts 182°
2026-04-26 16:20 36.15162 -95.88218 3124 ft 201 kts 149°
2026-04-26 16:21 36.14258 -95.86822 3542 ft 230 kts 111°
2026-04-26 16:21 36.13957 -95.84731 3956 ft 261 kts 102°
2026-04-26 16:21 36.13708 -95.82515 5003 ft 262 kts 103°
2026-04-26 16:21 36.13452 -95.80270 5954 ft 265 kts 103°
2026-04-26 16:22 36.13183 -95.78008 6730 ft 268 kts 103°
2026-04-26 16:22 36.12889 -95.75695 7361 ft 274 kts 103°
2026-04-26 16:22 36.12585 -95.73361 8110 ft 275 kts 103°
2026-04-26 16:22 36.12364 -95.71775 8642 ft 280 kts 103°
2026-04-26 16:23 36.11945 -95.68608 9926 ft 285 kts 103°
2026-04-26 16:23 36.11717 -95.66967 10249 ft 299 kts 102°
2026-04-26 16:23 36.11366 -95.64287 10345 ft 329 kts 102°
2026-04-26 16:23 36.10986 -95.61453 10824 ft 337 kts 102°
2026-04-26 16:24 36.10583 -95.58570 11444 ft 342 kts 101°
2026-04-26 16:24 36.10164 -95.55621 11880 ft 355 kts 102°
2026-04-26 16:24 36.09725 -95.52550 12168 ft 371 kts 101°
2026-04-26 16:24 36.09273 -95.49374 12698 ft 378 kts 101°
2026-04-26 16:25 36.08814 -95.46141 13271 ft 384 kts 101°
2026-04-26 16:25 36.08349 -95.42868 13879 ft 389 kts 101°
2026-04-26 16:25 36.07877 -95.39546 14326 ft 399 kts 101°
2026-04-26 16:25 36.07393 -95.36154 14666 ft 411 kts 101°
2026-04-26 16:26 36.06888 -95.32619 14950 ft 423 kts 101°
2026-04-26 16:26 36.06372 -95.29010 15435 ft 429 kts 101°
2026-04-26 16:26 36.05850 -95.25356 15945 ft 434 kts 101°
2026-04-26 16:26 36.05318 -95.21649 16438 ft 440 kts 101°
2026-04-26 16:27 36.04780 -95.17910 16915 ft 445 kts 101°
2026-04-26 16:27 36.04232 -95.14112 17382 ft 451 kts 101°
2026-04-26 16:27 36.03678 -95.10277 17849 ft 456 kts 101°
2026-04-26 16:27 36.03116 -95.06392 18295 ft 461 kts 101°
2026-04-26 16:28 36.02546 -95.02469 18749 ft 464 kts 101°
2026-04-26 16:28 36.02101 -94.98514 19230 ft 468 kts 94°
2026-04-26 16:28 36.02137 -94.94483 19710 ft 470 kts 87°
2026-04-26 16:28 36.02309 -94.90483 20448 ft 466 kts 86°
2026-04-26 16:29 36.02502 -94.86479 20842 ft 471 kts 86°
2026-04-26 16:29 36.02692 -94.82465 21164 ft 477 kts 86°
2026-04-26 16:29 36.02874 -94.78345 21545 ft 481 kts 87°
2026-04-26 16:29 36.03044 -94.74218 21965 ft 483 kts 87°
2026-04-26 16:30 36.03202 -94.70130 22344 ft 487 kts 87°
2026-04-26 16:30 36.03357 -94.65932 22721 ft 491 kts 88°
2026-04-26 16:30 36.03509 -94.61706 23078 ft 494 kts 88°
2026-04-26 16:30 36.03658 -94.57451 23449 ft 497 kts 88°
2026-04-26 16:31 36.03806 -94.53181 23806 ft 498 kts 87°
2026-04-26 16:31 36.03956 -94.48899 24156 ft 499 kts 87°
2026-04-26 16:31 36.04104 -94.44594 24437 ft 503 kts 87°
2026-04-26 16:31 36.04251 -94.40267 24697 ft 506 kts 87°
2026-04-26 16:32 36.04398 -94.35901 24968 ft 509 kts 87°
2026-04-26 16:32 36.04495 -94.33002 25161 ft 511 kts 87°
2026-04-26 16:32 36.04688 -94.27127 25539 ft 514 kts 87°
2026-04-26 16:32 36.04833 -94.22692 25819 ft 516 kts 88°
2026-04-26 16:33 36.04976 -94.18248 26090 ft 518 kts 87°
2026-04-26 16:33 36.05116 -94.13881 26560 ft 515 kts 87°
2026-04-26 16:33 36.05256 -94.09466 27030 ft 512 kts 87°
2026-04-26 16:33 36.05392 -94.05077 27441 ft 511 kts 87°
2026-04-26 16:34 36.05527 -94.00691 27815 ft 511 kts 88°
2026-04-26 16:34 36.05661 -93.96292 28211 ft 511 kts 88°
2026-04-26 16:34 36.05792 -93.91913 28618 ft 510 kts 88°
2026-04-26 16:34 36.05923 -93.87534 29036 ft 509 kts 88°
2026-04-26 16:35 36.06051 -93.83156 29450 ft 509 kts 88°
2026-04-26 16:35 36.06178 -93.78795 29888 ft 508 kts 88°
2026-04-26 16:35 36.06303 -93.74429 30266 ft 507 kts 88°
2026-04-26 16:35 36.06426 -93.70077 30607 ft 507 kts 88°
2026-04-26 16:36 36.06547 -93.65720 30906 ft 508 kts 88°
2026-04-26 16:36 36.06667 -93.61359 31201 ft 508 kts 88°
2026-04-26 16:36 36.06786 -93.56988 31535 ft 508 kts 88°
2026-04-26 16:36 36.06903 -93.52631 31889 ft 507 kts 88°
2026-04-26 16:37 36.07018 -93.48274 32232 ft 507 kts 88°
2026-04-26 16:37 36.07132 -93.43899 32536 ft 508 kts 88°
2026-04-26 16:37 36.07244 -93.39524 32840 ft 508 kts 88°
2026-04-26 16:37 36.07355 -93.35165 33155 ft 508 kts 88°
2026-04-26 16:38 36.07464 -93.30790 33470 ft 508 kts 88°
2026-04-26 16:38 36.07572 -93.26428 33799 ft 507 kts 88°
2026-04-26 16:38 36.07677 -93.22073 34085 ft 507 kts 88°
2026-04-26 16:38 36.07782 -93.17715 34338 ft 507 kts 88°
2026-04-26 16:39 36.07884 -93.13354 34602 ft 507 kts 88°
2026-04-26 16:39 36.07984 -93.09060 34862 ft 506 kts 88°
2026-04-26 16:39 36.08084 -93.04660 35142 ft 506 kts 88°
2026-04-26 16:39 36.08181 -93.00355 35303 ft 508 kts 89°
2026-04-26 16:40 36.08277 -92.95985 35494 ft 508 kts 89°
2026-04-26 16:40 36.08372 -92.91624 35771 ft 507 kts 89°
2026-04-26 16:40 36.08464 -92.87284 36049 ft 506 kts 89°
2026-04-26 16:40 36.08556 -92.82923 36274 ft 506 kts 89°
2026-04-26 16:41 36.08646 -92.78575 36468 ft 506 kts 89°
2026-04-26 16:41 36.08734 -92.74219 36615 ft 508 kts 89°
2026-04-26 16:41 36.08908 -92.65409 36775 ft 515 kts 89°
2026-04-26 16:42 36.08993 -92.60985 36883 ft 514 kts 89°
2026-04-26 16:42 36.09081 -92.56577 36943 ft 514 kts 89°
2026-04-26 16:42 36.09243 -92.47691 36962 ft 520 kts 89°
2026-04-26 16:43 36.09397 -92.38687 36964 ft 526 kts 89°
2026-04-26 16:43 36.09548 -92.29607 36948 ft 530 kts 89°
2026-04-26 16:44 36.09693 -92.20540 36945 ft 532 kts 89°
2026-04-26 16:44 36.09833 -92.11388 36959 ft 533 kts 89°
2026-04-26 16:45 36.09966 -92.02224 36955 ft 533 kts 89°
2026-04-26 16:45 36.10092 -91.93054 36961 ft 533 kts 89°
2026-04-26 16:46 36.10211 -91.83883 36953 ft 534 kts 89°
2026-04-26 16:46 36.10323 -91.74696 36969 ft 534 kts 89°
2026-04-26 16:47 36.10428 -91.65494 36980 ft 535 kts 89°
2026-04-26 16:47 36.10526 -91.56304 36979 ft 535 kts 89°
2026-04-26 16:48 36.10617 -91.47100 36976 ft 535 kts 89°
2026-04-26 16:48 36.10702 -91.37931 36995 ft 536 kts 89°
2026-04-26 16:49 36.10779 -91.28711 36984 ft 537 kts 89°
2026-04-26 16:49 36.10849 -91.19469 36973 ft 537 kts 89°
2026-04-26 16:50 36.10912 -91.10226 36975 ft 538 kts 89°
2026-04-26 16:50 36.10970 -91.00964 36972 ft 538 kts 89°
2026-04-26 16:51 36.10990 -90.91690 36970 ft 539 kts 90°
2026-04-26 16:51 36.10801 -90.82425 36969 ft 539 kts 92°
2026-04-26 16:52 36.10589 -90.74720 36977 ft 540 kts 91°
2026-04-26 16:52 36.10309 -90.63916 36985 ft 541 kts 91°
2026-04-26 16:53 36.10086 -90.54600 36976 ft 543 kts 91°
2026-04-26 16:53 36.09862 -90.45248 36969 ft 544 kts 91°
2026-04-26 16:54 36.09630 -90.35895 36974 ft 545 kts 91°
2026-04-26 16:54 36.09389 -90.26577 36969 ft 546 kts 91°
2026-04-26 16:55 36.09139 -90.17192 36972 ft 546 kts 91°
2026-04-26 16:55 36.08881 -90.07801 36969 ft 547 kts 91°
2026-04-26 16:56 36.08482 -89.93741 36979 ft 539 kts 90°
2026-04-26 16:57 36.08215 -89.84574 36968 ft 531 kts 90°
2026-04-26 16:57 36.08082 -89.80141 37237 ft 531 kts 91°
2026-04-26 16:57 36.07809 -89.71085 36970 ft 528 kts 90°
2026-04-26 16:58 36.07578 -89.63697 37249 ft 530 kts 92°
2026-04-26 16:58 36.07243 -89.53079 37012 ft 531 kts 91°
2026-04-26 16:59 36.07095 -89.48496 37010 ft 534 kts 90°
2026-04-26 17:00 36.06469 -89.30113 37004 ft 539 kts 90°
2026-04-26 17:00 36.05983 -89.16224 36997 ft 539 kts 90°
2026-04-26 17:01 36.05651 -89.06959 36990 ft 539 kts 90°
2026-04-26 17:01 36.05313 -88.97712 36983 ft 538 kts 90°
2026-04-26 17:02 36.04970 -88.88535 36975 ft 537 kts 90°
2026-04-26 17:02 36.04616 -88.79266 36991 ft 536 kts 90°
2026-04-26 17:03 36.04261 -88.70133 36987 ft 535 kts 90°
2026-04-26 17:03 36.03897 -88.60960 36999 ft 534 kts 90°
2026-04-26 17:04 36.03527 -88.51805 36998 ft 533 kts 90°
2026-04-26 17:04 36.03150 -88.42656 37014 ft 533 kts 90°
2026-04-26 17:05 36.02767 -88.33526 37000 ft 532 kts 90°
2026-04-26 17:05 36.02376 -88.24391 36998 ft 532 kts 90°
2026-04-26 17:06 36.01979 -88.15264 37000 ft 532 kts 90°
2026-04-26 17:06 36.01576 -88.06140 37014 ft 532 kts 90°
2026-04-26 17:07 36.01165 -87.97023 37008 ft 532 kts 90°
2026-04-26 17:07 36.00747 -87.87895 37008 ft 531 kts 90°
2026-04-26 17:08 36.00327 -87.78853 37011 ft 531 kts 90°
2026-04-26 17:08 35.99896 -87.69737 37049 ft 531 kts 90°
2026-04-26 17:09 35.99603 -87.63639 37020 ft 532 kts 90°
2026-04-26 17:09 35.99013 -87.51520 37017 ft 531 kts 90°
2026-04-26 17:10 35.98562 -87.42415 37027 ft 531 kts 90°
2026-04-26 17:10 35.98181 -87.34849 37013 ft 531 kts 90°
2026-04-26 17:11 35.97717 -87.25750 37023 ft 530 kts 90°
2026-04-26 17:11 35.97248 -87.16669 37016 ft 530 kts 90°
2026-04-26 17:12 35.96531 -87.03064 37023 ft 529 kts 90°
2026-04-26 17:13 35.95800 -86.89478 37043 ft 529 kts 90°
2026-04-26 17:14 35.95055 -86.75937 37048 ft 529 kts 90°
2026-04-26 17:14 35.94294 -86.62354 37042 ft 528 kts 90°
2026-04-26 17:15 35.93517 -86.48789 37052 ft 528 kts 90°
2026-04-26 17:16 35.92995 -86.39818 37007 ft 528 kts 90°
2026-04-26 17:16 35.92463 -86.30791 37009 ft 527 kts 90°
2026-04-26 17:17 35.91924 -86.21758 37049 ft 527 kts 90°
2026-04-26 17:17 35.91379 -86.12740 37040 ft 527 kts 90°
2026-04-26 17:18 35.90827 -86.03718 37028 ft 526 kts 90°
2026-04-26 17:18 35.90269 -85.94724 37034 ft 526 kts 90°
2026-04-26 17:19 35.89421 -85.81220 37030 ft 526 kts 91°
2026-04-26 17:19 35.88847 -85.72233 37026 ft 526 kts 91°
2026-04-26 17:20 35.88365 -85.64758 37038 ft 526 kts 91°
2026-04-26 17:20 35.87682 -85.54299 37037 ft 526 kts 91°
2026-04-26 17:21 35.87087 -85.45301 37033 ft 526 kts 91°
2026-04-26 17:21 35.86485 -85.36287 37033 ft 526 kts 91°
2026-04-26 17:22 35.85877 -85.27312 37029 ft 525 kts 91°
2026-04-26 17:22 35.85265 -85.18346 37023 ft 525 kts 91°
2026-04-26 17:23 35.84646 -85.09397 37020 ft 524 kts 91°
2026-04-26 17:23 35.84021 -85.00444 37030 ft 523 kts 91°
2026-04-26 17:24 35.83390 -84.91513 37017 ft 523 kts 91°
2026-04-26 17:24 35.82753 -84.82585 37026 ft 522 kts 91°
2026-04-26 17:25 35.82115 -84.73730 37034 ft 522 kts 91°
2026-04-26 17:25 35.81473 -84.64814 37036 ft 521 kts 90°
2026-04-26 17:26 35.81736 -84.55990 37037 ft 513 kts 79°
2026-04-26 17:26 35.82529 -84.47263 37031 ft 512 kts 78°
2026-04-26 17:27 35.83272 -84.38533 37029 ft 512 kts 79°
2026-04-26 17:27 35.83909 -84.29784 37038 ft 513 kts 80°
2026-04-26 17:28 35.84504 -84.21033 37043 ft 512 kts 80°
2026-04-26 17:28 35.85089 -84.12342 37041 ft 512 kts 80°
2026-04-26 17:29 35.85582 -84.05021 37042 ft 511 kts 80°
2026-04-26 17:29 35.86262 -83.94866 37057 ft 511 kts 80°
2026-04-26 17:30 35.86840 -83.86128 37061 ft 511 kts 81°
2026-04-26 17:30 35.87411 -83.77403 37055 ft 511 kts 81°
2026-04-26 17:31 35.87975 -83.68678 37044 ft 510 kts 81°
2026-04-26 17:31 35.88533 -83.59953 37036 ft 510 kts 81°
2026-04-26 17:32 35.89085 -83.51243 37041 ft 509 kts 81°
2026-04-26 17:32 35.88673 -83.42574 37057 ft 518 kts 103°
2026-04-26 17:33 35.86628 -83.34078 37022 ft 514 kts 104°
2026-04-26 17:34 35.83730 -83.21412 35921 ft 511 kts 103°
2026-04-26 17:34 35.82791 -83.17182 35282 ft 512 kts 103°
2026-04-26 17:34 35.81848 -83.12948 34626 ft 513 kts 103°
2026-04-26 17:34 35.80906 -83.08706 33917 ft 514 kts 103°
2026-04-26 17:35 35.79962 -83.04454 33154 ft 514 kts 103°
2026-04-26 17:35 35.79017 -83.00204 32432 ft 513 kts 103°
2026-04-26 17:35 35.78081 -82.96008 31954 ft 502 kts 103°
2026-04-26 17:35 35.77162 -82.91899 31455 ft 492 kts 103°
2026-04-26 17:36 35.76259 -82.87864 30975 ft 483 kts 103°
2026-04-26 17:36 35.75374 -82.83916 30526 ft 473 kts 103°
2026-04-26 17:36 35.74506 -82.80041 30053 ft 465 kts 103°
2026-04-26 17:36 35.73664 -82.76292 29554 ft 457 kts 103°
2026-04-26 17:37 35.72828 -82.72580 29400 ft 440 kts 104°
2026-04-26 17:37 35.72011 -82.68960 29136 ft 441 kts 104°
2026-04-26 17:37 35.71174 -82.65267 28659 ft 453 kts 104°
2026-04-26 17:38 35.69468 -82.57787 27749 ft 451 kts 104°
2026-04-26 17:38 35.68623 -82.54097 27282 ft 446 kts 104°
2026-04-26 17:38 35.67787 -82.50449 26856 ft 442 kts 104°
2026-04-26 17:38 35.66954 -82.46812 26390 ft 440 kts 104°
2026-04-26 17:39 35.66126 -82.43211 25925 ft 437 kts 104°
2026-04-26 17:39 35.65306 -82.39639 25528 ft 432 kts 104°
2026-04-26 17:39 35.64494 -82.36104 25085 ft 428 kts 104°
2026-04-26 17:39 35.63688 -82.32597 24673 ft 425 kts 104°
2026-04-26 17:40 35.62884 -82.29109 24245 ft 422 kts 104°
2026-04-26 17:40 35.62355 -82.26825 23977 ft 420 kts 104°
2026-04-26 17:40 35.61299 -82.22271 23401 ft 415 kts 104°
2026-04-26 17:40 35.60512 -82.18879 22962 ft 412 kts 104°
2026-04-26 17:41 35.59728 -82.15503 22496 ft 409 kts 104°
2026-04-26 17:41 35.58951 -82.12158 22073 ft 405 kts 104°
2026-04-26 17:41 35.58179 -82.08848 21653 ft 401 kts 104°
2026-04-26 17:41 35.57400 -82.05574 21235 ft 397 kts 107°
2026-04-26 17:42 35.56407 -82.02419 20856 ft 394 kts 112°
2026-04-26 17:42 35.55277 -81.99357 20447 ft 391 kts 114°
2026-04-26 17:42 35.54129 -81.96357 20042 ft 388 kts 114°
2026-04-26 17:42 35.52994 -81.93369 19641 ft 384 kts 113°
2026-04-26 17:43 35.51885 -81.90396 19228 ft 381 kts 112°
2026-04-26 17:43 35.50799 -81.87443 18829 ft 375 kts 112°
2026-04-26 17:43 35.49759 -81.84594 18431 ft 366 kts 112°
2026-04-26 17:43 35.48737 -81.81781 17999 ft 357 kts 112°
2026-04-26 17:44 35.47739 -81.79032 17592 ft 347 kts 112°
2026-04-26 17:44 35.46772 -81.76366 17208 ft 338 kts 112°
2026-04-26 17:44 35.45828 -81.73770 17037 ft 326 kts 112°
2026-04-26 17:44 35.44909 -81.71245 16888 ft 324 kts 112°
2026-04-26 17:45 35.43980 -81.68693 16761 ft 330 kts 111°
2026-04-26 17:45 35.43122 -81.66061 16417 ft 333 kts 107°
2026-04-26 17:45 35.42372 -81.63371 16086 ft 332 kts 106°
2026-04-26 17:45 35.41646 -81.60692 15752 ft 329 kts 105°
2026-04-26 17:46 35.40923 -81.58045 15426 ft 326 kts 106°
2026-04-26 17:46 35.40202 -81.55457 15081 ft 322 kts 106°
2026-04-26 17:46 35.39479 -81.52891 14760 ft 315 kts 106°
2026-04-26 17:46 35.38770 -81.50387 14460 ft 308 kts 107°
2026-04-26 17:47 35.38072 -81.47932 14156 ft 301 kts 107°
2026-04-26 17:47 35.37841 -81.47117 14052 ft 299 kts 107°
2026-04-26 17:47 35.36721 -81.43174 13537 ft 290 kts 107°
2026-04-26 17:47 35.36063 -81.40852 13254 ft 288 kts 107°
2026-04-26 17:48 35.35407 -81.38541 12946 ft 286 kts 107°
2026-04-26 17:48 35.34755 -81.36248 12661 ft 284 kts 107°
2026-04-26 17:48 35.34106 -81.33962 12381 ft 285 kts 107°
2026-04-26 17:48 35.33453 -81.31664 12078 ft 288 kts 107°
2026-04-26 17:49 35.32791 -81.29339 11768 ft 290 kts 107°
2026-04-26 17:49 35.32128 -81.27010 11453 ft 290 kts 108°
2026-04-26 17:49 35.31459 -81.24669 11138 ft 291 kts 107°
2026-04-26 17:49 35.30797 -81.22351 10817 ft 286 kts 108°
2026-04-26 17:50 35.30153 -81.20095 10652 ft 275 kts 108°
2026-04-26 17:50 35.29535 -81.17933 10511 ft 263 kts 107°
2026-04-26 17:50 35.28944 -81.15866 10405 ft 251 kts 107°
2026-04-26 17:50 35.28377 -81.13882 10296 ft 244 kts 108°
2026-04-26 17:51 35.27821 -81.11940 10209 ft 241 kts 108°
2026-04-26 17:51 35.27275 -81.10031 10148 ft 241 kts 108°
2026-04-26 17:51 35.26513 -81.08204 10035 ft 246 kts 133°
2026-04-26 17:51 35.25037 -81.07166 9927 ft 249 kts 167°
2026-04-26 17:52 35.23316 -81.06914 9806 ft 249 kts 175°
2026-04-26 17:52 35.21603 -81.06778 9642 ft 244 kts 176°
2026-04-26 17:52 35.19922 -81.06653 9507 ft 241 kts 176°
2026-04-26 17:52 35.18265 -81.06525 9380 ft 236 kts 176°
2026-04-26 17:53 35.16636 -81.06392 9249 ft 234 kts 176°
2026-04-26 17:53 35.15002 -81.06255 9151 ft 238 kts 176°
2026-04-26 17:53 35.13333 -81.06112 9042 ft 242 kts 175°
2026-04-26 17:54 35.09985 -81.05818 8728 ft 242 kts 175°
2026-04-26 17:54 35.08300 -81.05669 8472 ft 243 kts 175°
2026-04-26 17:54 35.06622 -81.05520 8213 ft 241 kts 175°
2026-04-26 17:54 35.04967 -81.05341 7965 ft 236 kts 174°
2026-04-26 17:55 35.03345 -81.05157 7705 ft 233 kts 174°
2026-04-26 17:55 35.01740 -81.04974 7460 ft 230 kts 174°
2026-04-26 17:55 35.00150 -81.04775 7215 ft 229 kts 173°
2026-04-26 17:55 34.98565 -81.04577 6915 ft 228 kts 173°
2026-04-26 17:56 34.96999 -81.04361 6620 ft 225 kts 173°
2026-04-26 17:56 34.94418 -81.04016 6126 ft 223 kts 172°
2026-04-26 17:57 34.91095 -81.02765 5415 ft 210 kts 129°
2026-04-26 17:57 34.90586 -81.01779 5297 ft 200 kts 105°
2026-04-26 17:57 34.90525 -81.00163 5099 ft 189 kts 73°
2026-04-26 17:57 34.91466 -80.98431 5015 ft 190 kts 36°
2026-04-26 17:58 34.94694 -80.96522 5004 ft 199 kts 27°
2026-04-26 17:59 34.97186 -80.95128 4977 ft 197 kts 25°
2026-04-26 17:59 34.98496 -80.94702 4872 ft 201 kts
2026-04-26 17:59 34.99895 -80.94875 4619 ft 201 kts 359°
2026-04-26 17:59 35.01269 -80.94959 4379 ft 196 kts 359°
2026-04-26 18:00 35.02616 -80.95051 4100 ft 193 kts 360°
2026-04-26 18:00 35.03920 -80.95156 3866 ft 187 kts 359°
2026-04-26 18:00 35.05216 -80.95266 3606 ft 186 kts 359°
2026-04-26 18:00 35.06491 -80.95371 3370 ft 184 kts 359°
2026-04-26 18:01 35.07755 -80.95487 3136 ft 180 kts
2026-04-26 18:01 35.08993 -80.95588 2899 ft 175 kts 359°
2026-04-26 18:01 35.10160 -80.95648 2714 ft 159 kts
2026-04-26 18:01 35.11288 -80.95806 2475 ft 164 kts 355°
2026-04-26 18:02 35.12378 -80.95878 2299 ft 149 kts
2026-04-26 18:02 35.13052 -80.95915 2139 ft 143 kts 359°
2026-04-26 18:02 35.14352 -80.96043 1862 ft 141 kts 358°
2026-04-26 18:02 35.15347 -80.96130 1702 ft 147 kts
2026-04-26 18:03 35.16391 -80.96218 1483 ft 151 kts
2026-04-26 18:03 35.17450 -80.96291 1273 ft 153 kts 360°
2026-04-26 18:03 35.18509 -80.96413 1089 ft 156 kts
2026-04-26 18:03 35.19580 -80.96503 847 ft 152 kts
2026-04-26 18:04 35.20629 -80.96576 743 ft 145 kts 360°
2026-04-26 18:04 35.21460 -80.96640 741 ft 92 kts
2026-04-26 18:04 35.21883 -80.96685 742 ft 31 kts 356°
2026-04-26 18:05 35.22175 -80.96636 739 ft 11 kts 26°
2026-04-26 18:05 35.22187 -80.96628 739 ft 0 kts 28°
2026-04-26 18:05 35.22198 -80.96621 738 ft 2 kts 29°
2026-04-26 18:06 35.22206 -80.96617 738 ft 0 kts 26°
2026-04-26 18:06 35.22225 -80.96602 736 ft 11 kts 37°
2026-04-26 18:06 35.22216 -80.96518 733 ft 12 kts 166°
2026-04-26 18:07 35.22140 -80.96510 733 ft 10 kts 175°
2026-04-26 18:07 35.22064 -80.96497 733 ft 12 kts 155°
2026-04-26 18:07 35.22039 -80.96390 732 ft 14 kts 84°
2026-04-26 18:07 35.22046 -80.96304 732 ft 16 kts 84°
2026-04-26 18:08 35.22058 -80.96102 731 ft 17 kts 87°
2026-04-26 18:08 35.22065 -80.95967 731 ft 14 kts 86°
2026-04-26 18:08 35.22070 -80.95872 731 ft 9 kts 86°
2026-04-26 18:08 35.22075 -80.95751 731 ft 20 kts 86°
2026-04-26 18:09 35.22085 -80.95584 732 ft 18 kts 85°
2026-04-26 18:09 35.22093 -80.95434 733 ft 17 kts 86°
2026-04-26 18:09 35.22094 -80.95417 733 ft 0 kts 86°
2026-04-26 18:09 35.22090 -80.95414 733 ft 1 kts 146°
2026-04-26 18:10 35.22047 -80.95443 733 ft 19 kts 195°
2026-04-26 18:10 35.21920 -80.95446 733 ft 15 kts 176°
2026-04-26 18:10 35.21848 -80.95375 734 ft 14 kts 97°
2026-04-26 18:10 35.21847 -80.95327 737 ft 0 kts 90°
2026-04-26 18:11 35.21848 -80.95277 740 ft 12 kts 85°
2026-04-26 18:11 35.21856 -80.95163 738 ft 15 kts 85°
2026-04-26 18:11 35.21864 -80.95023 733 ft 15 kts 87°
2026-04-26 18:11 35.21807 -80.94955 732 ft 12 kts 173°
2026-04-26 18:12 35.21723 -80.94944 732 ft 12 kts 175°
2026-04-26 18:12 35.21629 -80.94925 732 ft 15 kts 147°
2026-04-26 18:12 35.21614 -80.94793 731 ft 18 kts 85°
2026-04-26 18:12 35.21623 -80.94625 731 ft 21 kts 88°
2026-04-26 18:13 35.21640 -80.94454 731 ft 17 kts 68°
2026-04-26 18:13 35.21674 -80.94323 731 ft 15 kts 92°
2026-04-26 18:13 35.21673 -80.94204 731 ft 13 kts 66°
2026-04-26 18:13 35.21709 -80.94146 730 ft 13 kts 48°
2026-04-26 18:14 35.21785 -80.94054 731 ft 10 kts 22°
2026-04-26 18:14 35.21848 -80.94066 731 ft 9 kts 338°
2026-04-26 18:14 35.21874 -80.94122 731 ft 6 kts 253°
2026-04-26 18:14 35.21866 -80.94149 731 ft 3 kts 252°
2026-04-26 18:15 35.21860 -80.94172 730 ft 3 kts 252°
2026-04-26 18:15 35.21859 -80.94179 730 ft 0 kts 252°